AirNav   Pilot Hours Calculator
 
 364 users online  

0TX6 Elm Creek Airpark
Seguin, Texas, USA

GOING TO SEGUIN?


FAA INFORMATION EFFECTIVE 05 NOVEMBER 2020

Location

FAA Identifier: 0TX6
Lat/Long: 29-30-18.1500N 097-59-49.7250W
29-30.302500N 097-59.828750W
29.5050417,-97.9971458
(estimated)
Elevation: 550 ft. / 168 m (estimated)
Variation: 07E (1985)
From city: 4 miles SSW of SEGUIN, TX
Time zone: UTC -6 (UTC -5 during Daylight Saving Time)
Zip code: 78155

Airport Operations

Airport use: Private use. Permission required prior to landing
Activation date: 11/1989
Control tower: no
ARTCC: HOUSTON CENTER
FSS: SAN ANGELO FLIGHT SERVICE STATION
Attendance: UNATNDD
Wind indicator: yes
Segmented circle: no

Airport Communications

WX ASOS at BAZ (12 nm N): 119.325 (830-629-7979)

Nearby radio navigation aids

VOR radial/distance  VOR name  Freq  Var
RNDr088/15.1RANDOLPH VORTAC112.3005E
SATr101/25.6SAN ANTONIO VORTAC116.8008E
SSFr049/(27.6)STINSON VOR108.4009E

Airport Services

Runway Information

Runway 14/32

Dimensions: 1925 x 75 ft. / 587 x 23 m
Surface: turf
Runway edge markings: RY 14/32 OUTLINED WITH CONC DISKS.
RUNWAY 14  RUNWAY 32
Latitude: 29-30.445000N29-30.160000N
Longitude: 097-59.909167W097-59.748333W
Elevation: 550.0 ft.550.0 ft.
Traffic pattern: leftright
Displaced threshold: no50 ft.
Obstructions: 20 ft. pline, marked, 500 ft. from runwaytrees

Airport Ownership and Management from official FAA records

Ownership: Privately-owned
Owner: ELM CREEK HOMEOWNERS ASSN INC
100 TAILWIND DRIVE
SEGUIN, TX 78155-0791
Phone 830-303-3640
Manager: JACK MERRELL
100 TAILWIND DRIVE
SEGUIN, TX 78155-0791
Phone 830-303-3640

Airport Operational Statistics

Aircraft based on the field: 20
Single engine airplanes: 20
    

Additional Remarks

FOR CD CTC SAN ANTONIO APCH AT 210-805-5516.

Instrument Procedures

There are no published instrument procedures at 0TX6.

Some nearby airports with instrument procedures:

KBAZ - New Braunfels Regional Airport (12 nm N)
KRND - Randolph Air Force Base (15 nm W)
KHYI - San Marcos Regional Airport (24 nm N)
KSAT - San Antonio International Airport (25 nm W)
KSSF - Stinson Municipal Airport (27 nm W)
 
Loc | Ops | Rwys | IFR | FBO | Links
Com | Nav | Svcs | Stats | Notes
Area around 0TX6 (Elm Creek Airpark)
 
Road maps at: MapQuest Bing Google
 
Aerial photo
WARNING: Photo may not be current or correct
Aerial photo of 0TX6 (Elm Creek Airpark)
Do you have a better or more recent aerial photo of Elm Creek Airpark that you would like to share? If so, please send us your photo.

 
Sectional chart

 
Airport distance calculator
Flying to Elm Creek Airpark? Find the distance to fly.

From to 0TX6

Sunrise and sunset
Times for 01-Dec-2020
 Local
(UTC-6)
 Zulu
(UTC)
Morning civil twilight06:4512:45
Sunrise07:1113:11
Sunset17:3223:32
Evening civil twilight17:5823:58

Current date and time
Zulu (UTC)  01-Dec-2020 10:04:18
Local (UTC-6)  01-Dec-2020 04:04:18
 
METAR
KSEQ 
6nm NE 
010958Z AUTO 00000KT 10SM CLR M01/M02 A3030 RMK AO2 SLP264 T10141017
KBAZ 
13nm N 
010951Z AUTO 00000KT 10SM CLR M01/M05 A3024 RMK AO2 SLP241 T10061050
KRND 
14nm W 
010956Z AUTO 34004KT 7SM CLR M02/M04 A3023 RMK AO2 SLP240 T10201045 $
TAF
KRND 
14nm W 
301645Z 3017/0123 36010G15KT 9999 SCT250 QNH3034INS BECMG 3023/3024 VRB06KT 9999 SKC QNH3023INS BECMG 0117/0118 19012G18KT 9999 SKC QNH3003INS TX13/3021Z TNM01/0112Z LAST NO AMDS AFT 2023 NEXT 0111
NOTAMs
Click for the latest NOTAMs
NOTAMs are issued by the DoD/FAA and will open in a separate window not controlled by AirNav.

 

 
 

Would you like to see your business listed on this page?

 If your business provides an interesting product or service to pilots, flight crews, aircraft, or users of the Elm Creek Airpark, you should consider listing it here.  To start the listing process, click on the button below
 
Add a business
 

Other Pages about Elm Creek Airpark

elmcreekap.org
 
Update a link
 
Copyright © AirNav, LLC. All rights reserved. Privacy Policy  Contact